TimeEAT,TemperatureF,Dew PointF,Humidity,Sea Level PressureIn,VisibilityMPH,Wind Direction,Wind SpeedMPH,Gust SpeedMPH,PrecipitationIn,Events,Conditions,WindDirDegrees,DateUTC
12:00 AM,78.8,75.2,89,29.89,6.2,Calm,Calm,-,N/A,,Partly Cloudy,0,2013-02-21 21:00:00
1:00 AM,78.8,73.4,83,29.86,6.2,Calm,Calm,-,N/A,,Partly Cloudy,0,2013-02-21 22:00:00
1:30 AM,78.8,73.4,83,29.86,6.2,Calm,Calm,-,N/A,,Scattered Clouds,0,2013-02-21 22:30:00
3:00 AM,77,73,83,32.21,16,Calm,Calm,,,,Scattered Clouds,,2013-02-22 00:00:00
4:00 AM,77.0,73.4,89,29.86,6.2,Calm,Calm,-,N/A,,Partly Cloudy,0,2013-02-22 01:00:00
6:00 AM,77.0,73.4,89,29.86,6.2,Calm,Calm,-,N/A,,Scattered Clouds,0,2013-02-22 03:00:00
7:00 AM,78.8,73.4,83,29.89,6.2,Calm,Calm,-,N/A,,Mostly Cloudy,0,2013-02-22 04:00:00
8:00 AM,80.6,71.6,74,29.92,6.2,NE,3.5,-,N/A,,Mostly Cloudy,40,2013-02-22 05:00:00
9:00 AM,83,71,60,29.93,19,North,11.5,,,,Mostly Cloudy,0,2013-02-22 06:00:00
9:00 AM,82.4,71.6,70,29.92,6.2,North,11.5,-,N/A,,Mostly Cloudy,360,2013-02-22 06:00:00
10:00 AM,86.0,71.6,62,29.92,6.2,East,9.2,-,N/A,,Partly Cloudy,90,2013-02-22 07:00:00
11:00 AM,89.6,71.6,55,29.92,6.2,NE,18.4,-,N/A,,Scattered Clouds,40,2013-02-22 08:00:00
12:00 PM,89.6,73.4,59,29.89,6.2,East,13.8,-,N/A,,Partly Cloudy,90,2013-02-22 09:00:00
1:00 PM,89.6,69.8,52,29.86,6.2,East,23.0,-,N/A,,Partly Cloudy,90,2013-02-22 10:00:00
2:00 PM,89.6,73.4,59,29.80,6.2,East,11.5,-,N/A,,Partly Cloudy,90,2013-02-22 11:00:00
3:00 PM,88,72,50,29.80,19,East,18.4,,,,Scattered Clouds,80,2013-02-22 12:00:00
3:00 PM,87.8,71.6,58,29.80,6.2,East,18.4,-,N/A,,Partly Cloudy,80,2013-02-22 12:00:00
4:00 PM,87.8,71.6,58,29.77,6.2,ENE,18.4,-,N/A,,Partly Cloudy,60,2013-02-22 13:00:00
5:00 PM,86.0,69.8,58,29.74,6.2,East,15.0,-,N/A,,Partly Cloudy,80,2013-02-22 14:00:00
6:00 PM,84.2,71.6,66,29.77,6.2,East,18.4,-,N/A,,Partly Cloudy,80,2013-02-22 15:00:00
7:00 PM,80.6,71.6,74,29.80,6.2,ENE,9.2,-,N/A,,Partly Cloudy,60,2013-02-22 16:00:00
8:00 PM,80.6,73.4,79,29.83,6.2,ENE,12.7,-,N/A,,Partly Cloudy,60,2013-02-22 17:00:00
9:00 PM,80,74,78,29.86,19,ENE,9.2,,,,Partly Cloudy,60,2013-02-22 18:00:00
9:00 PM,78.8,75.2,89,29.86,6.2,ENE,9.2,-,N/A,,Scattered Clouds,60,2013-02-22 18:00:00
10:00 PM,78.8,75.2,89,29.89,6.2,ENE,5.8,-,N/A,,Partly Cloudy,60,2013-02-22 19:00:00
11:00 PM,78.8,75.2,89,29.89,6.2,NNE,4.6,-,N/A,,Mostly Cloudy,30,2013-02-22 20:00:00